GW6410 Weather Reports


Display with metric or nautical units.
time (UTC)temp
F
wind
direction
speed
MPH
gust
MPH
rain 1hr
in
rain 24hr
in
rain mn
in
humidity
%
barometer
mb
20260504110503 41 231 0.0 0.0 0.00 0.00 0.00 91 1018.4
20260504100511 42 231 0.0 1.0 0.00 0.00 0.00 90 1018.1
20260504082004 43 238 0.0 0.0 0.00 0.00 0.00 88 1018.1
20260504081515 43 238 0.0 0.0 0.00 0.00 0.00 88 1018.1
20260504081007 43 238 0.0 0.0 0.00 0.00 0.00 88 1018.1
20260504080506 43 238 0.0 0.0 0.00 0.00 0.00 88 1018.3
20260504050504 48 238 0.0 0.0 0.00 0.00 0.00 78 1018.6
20260504050014 48 238 0.0 1.0 0.00 0.00 0.00 79 1018.6
20260504045505 48 238 0.0 1.0 0.00 0.00 0.00 79 1018.7
20260504045002 48 238 0.0 1.0 0.00 0.00 0.00 79 1018.6
20260504044509 48 238 0.0 0.0 0.00 0.00 0.00 80 1018.8
20260504044005 48 238 0.0 0.0 0.00 0.00 0.00 79 1018.7
20260504043505 48 238 0.0 0.0 0.00 0.00 0.00 78 1018.7
20260504043020 48 238 0.0 0.0 0.00 0.00 0.00 78 1018.6
20260504042507 48 238 0.0 0.0 0.00 0.00 0.00 78 1018.7
20260504042008 48 238 0.0 0.0 0.00 0.00 0.00 78 1018.7
20260504041521 48 238 0.0 0.0 0.00 0.00 0.00 79 1018.7
20260504041007 48 238 0.0 0.0 0.00 0.00 0.00 79 1018.7
20260504040507 49 238 0.0 0.0 0.00 0.00 0.00 78 1018.8
20260504040024 49 238 0.0 0.0 0.00 0.00 0.00 78 1018.8
20260504035512 49 238 0.0 1.0 0.00 0.00 0.00 77 1018.8
20260504035003 50 238 0.0 1.0 0.00 0.00 0.00 76 1018.8
20260504034508 50 238 0.0 1.0 0.00 0.00 0.00 75 1018.8
20260504034002 49 227 0.0 1.0 0.00 0.00 0.00 77 1018.8
20260504033502 50 226 0.0 0.0 0.00 0.00 0.00 78 1018.8
20260504033013 50 226 0.0 1.0 0.00 0.00 0.00 77 1018.9
20260504032506 50 226 0.0 1.0 0.00 0.00 0.00 77 1018.9
20260504032009 50 226 0.0 0.0 0.00 0.00 0.00 76 1018.8
20260504031523 51 226 0.0 1.0 0.00 0.00 0.00 74 1018.9
20260504031008 52 226 0.0 1.0 0.00 0.00 0.00 73 1018.8
20260504030507 52 226 0.0 1.0 0.00 0.00 0.00 71 1018.8
20260504030021 52 278 0.0 1.0 0.00 0.00 0.00 71 1018.8
20260504025507 52 278 0.0 1.0 0.00 0.00 0.00 72 1018.8
20260504025007 52 272 0.0 1.0 0.00 0.00 0.00 71 1018.7
20260504024524 52 278 0.0 1.0 0.00 0.00 0.00 73 1018.7
20260504024010 52 278 0.0 1.0 0.00 0.00 0.00 72 1018.6
20260504023504 53 278 0.0 1.0 0.00 0.00 0.00 70 1018.5
20260504023016 53 278 0.0 1.0 0.00 0.00 0.00 67 1018.5
20260504022508 54 278 0.0 1.0 0.00 0.00 0.00 67 1018.4
20260504022004 54 278 0.0 1.0 0.00 0.00 0.00 64 1018.4
20260504021517 54 278 0.0 1.0 0.00 0.00 0.00 66 1018.4
20260504021004 54 265 0.0 1.0 0.00 0.00 0.00 64 1018.2
20260504020508 54 265 0.0 1.0 0.00 0.00 0.00 65 1018.3
20260504020019 54 266 0.0 1.0 0.00 0.00 0.00 64 1018.2
20260504015508 54 265 0.0 1.0 0.00 0.00 0.00 65 1018.1
20260504015008 54 266 0.0 1.0 0.00 0.00 0.00 66 1018.0
20260504014526 54 255 0.0 1.0 0.00 0.00 0.00 66 1017.9
20260504014007 54 255 0.0 1.0 0.00 0.00 0.00 67 1017.9
20260504013510 55 255 0.0 1.0 0.00 0.00 0.00 68 1017.9
20260504013033 55 255 0.0 1.0 0.00 0.00 0.00 68 1017.8
20260504012510 55 255 0.0 1.0 0.00 0.00 0.00 65 1017.7
20260504012009 55 255 0.0 1.0 0.00 0.00 0.00 65 1017.6
20260504011513 55 254 0.0 0.0 0.00 0.00 0.00 66 1017.7
20260504011004 56 254 0.0 0.0 0.00 0.00 0.00 65 1017.7
20260504010505 56 254 0.0 0.0 0.00 0.00 0.00 64 1017.6
20260504010018 57 254 0.0 0.0 0.00 0.00 0.00 61 1017.6
20260504005505 58 254 0.0 0.0 0.00 0.00 0.00 60 1017.5
20260504005008 58 254 0.0 0.0 0.00 0.00 0.00 57 1017.5
20260504004523 59 254 0.0 1.0 0.00 0.00 0.00 56 1017.5
20260504004009 60 254 0.0 1.0 0.00 0.00 0.00 54 1017.4
20260504003512 60 254 0.0 1.0 0.00 0.00 0.00 53 1017.4
20260504003035 61 254 0.0 1.0 0.00 0.00 0.00 51 1017.4
20260504002506 61 254 0.0 1.0 0.00 0.00 0.00 50 1017.4
20260504002010 62 254 0.0 0.0 0.00 0.00 0.00 47 1017.4
20260504001528 62 254 0.0 0.0 0.00 0.00 0.00 45 1017.3
20260504001009 63 254 0.0 1.0 0.00 0.00 0.00 44 1017.3
20260504000509 63 254 0.0 1.0 0.00 0.00 0.00 44 1017.3
20260504000031 64 254 0.0 1.0 0.00 0.00 0.00 43 1017.2
20260503235506 64 254 0.0 1.0 0.00 0.00 0.00 42 1017.2
20260503235004 65 254 0.0 1.0 0.00 0.00 0.00 41 1017.2
20260503234518 65 254 0.0 1.0 0.00 0.00 0.00 42 1017.2
20260503234007 66 255 0.0 1.0 0.00 0.00 0.00 41 1017.2
20260503233507 66 240 0.0 2.0 0.00 0.00 0.00 39 1017.2
20260503233020 66 224 0.0 2.0 0.00 0.00 0.00 38 1017.1
20260503232505 67 234 0.0 4.0 0.00 0.00 0.00 38 1017.1
20260503232010 67 234 0.0 4.0 0.00 0.00 0.00 36 1017.1
20260503231524 68 285 0.0 3.0 0.00 0.00 0.00 36 1017.1
20260503231011 68 192 0.0 3.0 0.00 0.00 0.00 35 1017.2
20260503230509 69 209 1.0 4.0 0.00 0.00 0.00 33 1017.1
20260503230026 69 219 1.0 4.0 0.00 0.00 0.00 33 1017.1
20260503225509 69 276 0.0 3.0 0.00 0.00 0.00 33 1017.1
20260503225012 70 309 1.0 2.0 0.00 0.00 0.00 32 1017.1
20260503224513 71 300 0.0 4.0 0.00 0.00 0.00 33 1017.1
20260503224006 72 293 1.0 4.0 0.00 0.00 0.00 31 1017.1
20260503223506 72 326 0.0 3.0 0.00 0.00 0.00 31 1017.1
20260503223019 72 46 0.0 3.0 0.00 0.00 0.00 30 1017.1
20260503222505 73 285 0.0 3.0 0.00 0.00 0.00 31 1017.1
20260503222009 72 257 1.0 3.0 0.00 0.00 0.00 31 1017.1
20260503221525 72 345 1.0 3.0 0.00 0.00 0.00 30 1017.1
20260503221012 73 354 1.0 4.0 0.00 0.00 0.00 31 1017.2
20260503220510 73 281 2.0 4.0 0.00 0.00 0.00 30 1017.2
20260503220026 73 284 1.0 5.0 0.00 0.00 0.00 30 1017.1
20260503215512 72 262 1.0 5.0 0.00 0.00 0.00 30 1017.2
20260503215014 73 355 1.0 6.0 0.00 0.00 0.00 30 1017.1
20260503214527 72 254 2.0 6.0 0.00 0.00 0.00 30 1017.2
20260503214014 73 115 2.0 6.0 0.00 0.00 0.00 30 1017.1
20260503213516 73 323 1.0 5.0 0.00 0.00 0.00 31 1017.3
20260503213024 73 353 1.0 5.0 0.00 0.00 0.00 31 1017.3
20260503212505 73 297 1.0 4.0 0.00 0.00 0.00 30 1017.3
20260503212006 73 220 0.0 4.0 0.00 0.00 0.00 33 1017.3
20260503211521 72 323 1.0 5.0 0.00 0.00 0.00 31 1017.5
20260503211007 72 255 1.0 6.0 0.00 0.00 0.00 32 1017.4
20260503210509 72 321 2.0 6.0 0.00 0.00 0.00 30 1017.3
20260503210004 72 349 2.0 6.0 0.00 0.00 0.00 33 1017.5
20260503205506 73 322 2.0 3.0 0.00 0.00 0.00 34 1017.6
20260503205007 72 313 1.0 3.0 0.00 0.00 0.00 32 1017.7
20260503204507 72 335 1.0 6.0 0.00 0.00 0.00 34 1017.7
20260503204005 72 95 2.0 8.0 0.00 0.00 0.00 32 1017.7
20260503203505 72 335 2.0 8.0 0.00 0.00 0.00 33 1017.7
20260503203020 71 89 1.0 5.0 0.00 0.00 0.00 34 1017.8
20260503202506 72 125 2.0 7.0 0.00 0.00 0.00 31 1017.9
20260503202006 72 187 1.0 7.0 0.00 0.00 0.00 35 1018.0
20260503201516 72 231 1.0 5.0 0.00 0.00 0.00 33 1018.1
20260503201006 72 349 1.0 4.0 0.00 0.00 0.00 33 1018.2
20260503200512 72 311 1.0 4.0 0.00 0.00 0.00 31 1018.3
20260503200022 72 288 1.0 4.0 0.00 0.00 0.00 35 1018.4
20260503195503 72 14 0.0 4.0 0.00 0.00 0.00 34 1018.4
20260503195005 72 352 0.0 3.0 0.00 0.00 0.00 37 1018.5
20260503194504 72 286 1.0 3.0 0.00 0.00 0.00 37 1018.5
20260503194004 72 262 1.0 4.0 0.00 0.00 0.00 34 1018.6
20260503193505 71 121 0.0 5.0 0.00 0.00 0.00 34 1018.7
20260503193024 72 158 2.0 7.0 0.00 0.00 0.00 34 1018.8
20260503192504 71 290 1.0 7.0 0.00 0.00 0.00 34 1019.1
20260503192006 71 259 1.0 6.0 0.00 0.00 0.00 35 1019.0
20260503191514 71 103 0.0 7.0 0.00 0.00 0.00 36 1019.2
20260503191004 70 282 3.0 7.0 0.00 0.00 0.00 35 1019.4
20260503190507 70 254 2.0 4.0 0.00 0.00 0.00 36 1019.4
20260503190023 69 253 1.0 5.0 0.00 0.00 0.00 38 1019.5
20260503185507 70 6 2.0 5.0 0.00 0.00 0.00 37 1019.5
20260503185008 70 326 1.0 5.0 0.00 0.00 0.00 38 1019.7
20260503184524 69 322 2.0 6.0 0.00 0.00 0.00 37 1019.7
20260503184004 69 198 3.0 6.0 0.00 0.00 0.00 38 1019.7
20260503183503 69 139 1.0 6.0 0.00 0.00 0.00 36 1019.7
20260503183029 69 134 1.0 6.0 0.00 0.00 0.00 38 1019.8
20260503182503 69 218 1.0 4.0 0.00 0.00 0.00 38 1019.9
20260503182003 69 335 1.0 5.0 0.00 0.00 0.00 38 1020.0
20260503181509 69 257 2.0 5.0 0.00 0.00 0.00 38 1019.9
20260503181005 69 285 2.0 4.0 0.00 0.00 0.00 38 1019.9
20260503180505 69 186 0.0 4.0 0.00 0.00 0.00 39 1020.0
20260503180024 68 11 2.0 6.0 0.00 0.00 0.00 37 1020.0
20260503175505 69 296 2.0 6.0 0.00 0.00 0.00 37 1020.0
20260503175008 69 302 2.0 4.0 0.00 0.00 0.00 41 1020.0
20260503174520 69 291 1.0 5.0 0.00 0.00 0.00 41 1020.0
20260503174010 69 278 2.0 5.0 0.00 0.00 0.00 38 1020.0
20260503173506 68 83 0.0 5.0 0.00 0.00 0.00 41 1020.0
20260503173039 67 338 2.0 5.0 0.00 0.00 0.00 42 1020.0
20260503172510 67 344 2.0 6.0 0.00 0.00 0.00 43 1020.0
20260503172006 67 280 1.0 7.0 0.00 0.00 0.00 41 1020.2
20260503171508 68 145 2.0 7.0 0.00 0.00 0.00 42 1020.2
20260503171004 67 325 1.0 5.0 0.00 0.00 0.00 47 1020.2
20260503170503 66 110 2.0 5.0 0.00 0.00 0.00 40 1020.3
20260503151008 62 217 1.0 4.0 0.00 0.00 0.00 53 1021.2
20260503150509 62 229 0.0 4.0 0.00 0.00 0.00 52 1021.3
20260503131007 51 83 0.0 2.0 0.00 0.00 0.00 77 1020.6
20260503130504 50 14 0.0 2.0 0.00 0.00 0.00 78 1020.6